Location: Cahas Mountain Overlook
(37.0833°N, 80.1000°W)
Time: 18:49:42
(UTC-05:00)

BlueWalker 3 - Pass Details

Date: 08 December 2022
Orbit: 499 x 517 km, 53.2° (Epoch: 31 January)

Event Time Altitude Azimuth Distance (km) Brightness Sun altitude
Rises 18:49:55 0° 319° (NW) 2,619 6.0 -20.7°
Reaches altitude 10° 18:52:15 10° 328° (NNW) 1,726 4.9 -21.1°
Enters shadow 18:54:27 26° 352° (N) 1,014 3.4 -21.6°
